Regional Weather Roundup
Issued by NWS Burlington, VT

Current Version | Previous Version | Text Only | Print | Product List | Glossary On
Versions: 1 2 3 4 5 6 7 8 9 10 11 12 13 14 15 16 17 18 19 20 21 22 23 24 25 26 27 28 29 30 31 32 33 34 35 36 37 38 39 40 41 42 43 44 45 46 47 48 49 50
000
ASUS41 KBTV 241430
RWRBTV
VERMONT REGIONAL WEATHER ROUNDUP
NATIONAL WEATHER SERVICE BURLINGTON VT
1000 AM EDT WED MAY 24 2017

NOTE: "FAIR" INDICATES FEW OR NO CLOUDS BELOW 12,000 FEET WITH NO
SIGNIFICANT WEATHER AND/OR OBSTRUCTIONS TO VISIBILITY.

* THESE REPORTS ARE NOT UNDER NWS QUALITY CONTROL AND/OR DO NOT
  REPORT WEATHER SUCH AS PRECIPITATION AND FOG.

VTZ001>019-241500-
_____VERMONT_____


CITY           SKY/WX    TMP DP  RH WIND       PRES   REMARKS
BURLINGTON     PTSUNNY   68  54  60 NW5       29.77F
MONTPELIER     PTSUNNY   62  53  72 CALM      29.84S
MORRISVILLE    MOSUNNY   64  51  62 CALM      29.80F
ST. JOHNSBURY*   N/A     62  50  64 MISG      29.79F
LYNDONVILLE*   PTSUNNY   61  52  73 CALM      29.83S
MIDDLEBURY*    FAIR      67  54  63 CALM      29.79S
RUTLAND*       CLOUDY    63  53  70 N3        29.79R
SPRINGFIELD    CLOUDY    64  52  64 CALM      29.80R
HIGHGATE*      FAIR      64  55  71 NW3       29.79R
NEWPORT*       FAIR      66  52  59 SE3       29.81S
BENNINGTON     CLOUDY    64  53  67 CALM      29.79R
SUTTON*          N/A     63 N/A N/A MISG        N/A
ISLAND POND*     N/A     68 N/A N/A E3          N/A
GALLUP MILLS*    N/A     64 N/A N/A MISG        N/A
UNION VILLAGE*   N/A     63 N/A N/A MISG        N/A

_____LAKE CHAMPLAIN_____


CITY           SKY/WX    TMP DP  RH WIND       PRES   REMARKS
BURTON ISLAND*   N/A     59  54  82 W1          N/A
COLCHESTER RF*   N/A     54  52  94 N3          N/A
DIAMOND ISL*     N/A     59  54  82 NW2         N/A

$$

NYZ007-026>031-035-052-083-087-241500-
_____NORTHERN NEW YORK_____


CITY           SKY/WX    TMP DP  RH WIND       PRES   REMARKS
PLATTSBURGH    PTSUNNY   63  52  67 CALM      29.78S
SARANAC LAKE   CLOUDY    61  50  67 CALM      29.78S
MASSENA        CLOUDY    63  54  72 E3        29.78F
OGDENSBURG*    FAIR      63  54  73 CALM      29.78R
POTSDAM*       MOSUNNY   64  55  72 NE3       29.78R
STARK FALLS*     N/A     61 N/A N/A SE5         N/A
WATERTOWN      CLOUDY    65  56  72 NE3       29.75R
FT DRUM        CLOUDY    62  51  66 SE8       29.75S
ALBANY         CLOUDY    61  53  75 N6        29.79R

$$
NHZ002-005-011-241500-
_____NEW HAMPSHIRE_____


CITY           SKY/WX    TMP DP  RH WIND       PRES   REMARKS
LEBANON        CLOUDY    64  52  64 NW5       29.79F
KEENE          MOSUNNY   61  54  77 CALM      29.79S
MT WASHINGTON  PTSUNNY   41  43 100 S7          N/A  FOG
WHITEFIELD     CLOUDY    67  51  56 CALM      29.80F

$$

_____REGIONAL QUEBEC LOCATIONS_____


CITY           SKY/WX    TMP DP  RH WIND       PRES   REMARKS
MONTREAL       PTSUNNY   68  52  56 E6        29.78S
QUEBEC CITY    MOSUNNY   63  50  63 E3        29.81F
SHERBROOKE     SUNNY     64  50  59 N3        29.81S

_____REGIONAL ONTARIO LOCATIONS_____


CITY           SKY/WX    TMP DP  RH WIND       PRES   REMARKS
OTTAWA         PTSUNNY   64  54  68 E8        29.78R

______KEY______
VSB  - VISIBILITY IN MILES
WCI  - WIND CHILL INDEX
HX   - HEAT INDEX
$$
NNNN




USA.gov is the U.S. government's official web portal to all federal, state and local government web resources and services.